STARLINK-1538, 46071

Orbit data source: Space-Track

STARLINK-1538, 46071 is a payload satellite owned by SpaceX/Seattle (US) in LEO that was launched on Fri, 07 Aug 2020 UTC via an FALCON 9 launch vehicle from the Air Force Eastern Test Range (AFETR). Payloads include a variety of satellites, spacecraft, and rockets equipped with specific instruments for various scientific and technological missions. These include communications satellites like Starlink; space stations such as the ISS; scientific satellites like the Hubble; Earth observation satellites from companies like Planet Labs, Umbra, and HawkEye 360; GPS; miniature CubeSats for education and research; and military/defense satellites.

Not visible in the next 10 days
STARLINK-1538 details
Identifier
46071, 2020-055AW
Orbit
LEO
Last TLE update9 hours ago
Origin
Flag of USSpaceX/Seattle (US)
ManufacturerSpaceX/Seattle
MissionPartially operational Commercial Communications
Bus & MotorSTARLINK, Unknown motor
Mass260 kg wet, ~248 kg dry
Launch date (UTC)
2020-08-07 (4 years ago)
Launch vehicle
FALCON 9
Launch site
Air Force Eastern Test Range (AFETR)
Object type
Payload
Rocket body
Debris
Shape & HBRBox + 1 Pan, 8.86 m
Radar Cross Section13.562 m², Large (>1 m²)

Expand to show TLE details & history

TLE from 9 hours ago
0 STARLINK-1538
1 46071U 20055AW  24361.54352115  .01416571  13690-2  14738-2 0  9993
2 46071  53.0378 244.1456 0002709 224.9494 135.1321 16.10214521243541
Epoch: 2024-12-26T13:02Z
Definitive object data (Epoch: 2024-12-26T13:02:40.227Z)
Latitude0.00001°
Longitude-47.04341°
Altitude248.444 km
Speed7.758 km/s
True Right ascension16h 16m 34s
True Declination0° 00' 00"
Sunlit
Object was in daylight at TLE epoch
Visualization TLE readout
Latitude52.31419°
Longitude26.53179°
Altitude250.886 km
Speed7.762 km/s
Apparent Right ascension11h 50m 32s
Apparent Declination48° 05' 50"
Sunlit
Object is in daylight
Visualization observer readout
Local Sidereal Time21:42:00
Azimuth339.172° N
Elevation2.51°
Doppler factor1
Orbital elements
Apogee altitude248.335 km
Perigee altitude244.746 km
Semi-major axis6,624.677 km
Eccentricity0.0002709
Inclination53.0378°
RAAN244.1456°
Arg. of periapsis224.9494°
True anomaly135.15399°
Mean anomaly135.1321°
Eccentric anomaly135.14305°
Mean motion4.02528 °/min
BSTAR0.0014738
Orbital period89.43 mins
Loading maneuver chart data...
Loading historical data...
Loading historical data...
Loading historical data...
Loading historical data...
Loading historical data...
Loading historical data...
Loading historical data...

STARLINK-1538 Visibility forecast

Observer location: undefined°, undefined

STARLINK-1538 is not visible in the next 10 days
Span
Click to sort rows by Start time (UTC) header in descending order
Start Az.
Max El. time (UTC)
Max El. Az.
Max El.
End time (UTC)
End Az.
|